COSMOS 1275 DEB, 42147

Orbit data source: Space-Track

COSMOS 1275 DEB, 42147 is space debris in LEO originally from a launch on Thu, 04 Jun 1981 UTC launched from the Plesetsk Missile And Space Complex (PKMTR). Debris objects in space refer to the collection of defunct objects orbiting the Earth. Examples of debris include non-operational satellites, rocket bodies, and fragments generated from explosions, collisions, or faulty payload assembly.

Loading next visibility...
COSMOS 1275 DEB details
Identifier
42147, 1981-053RK
Orbit
LEO
Last TLE update5 days ago
Origin
Flag of CISGUKOS (CIS)
ManufacturerUnknown
MissionSpacecraft
Bus & MotorUnknown
MassUnknown
Launch date (UTC)
1981-06-04 (44 years ago)
Launch vehicleUnknown
Launch site
Plesetsk Missile And Space Complex (PKMTR)
Object type
Payload
Rocket body
Debris
Shape & HBRUnknown
Radar Cross SectionSmall (<0.1 m²)

Expand to show TLE details & history

TLE from 5 days ago
0 COSMOS 1275 DEB
1 42147U 81053RK  24334.27262721  .00006960  00000-0  32432-2 0  9997
2 42147  83.0660 339.0660 0018552 341.4691  18.5813 14.20257907 29890
Epoch: 2024-11-29T06:32Z
Definitive object data (Epoch: 2024-11-29T06:32:34.99Z)
Latitude-0.00002°
Longitude172.27829°
Altitude814.781 km
Speed7.452 km/s
True Right ascension22h 36m 15s
True Declination0° 00' 00"
Sunlit
Object was in daylight at TLE epoch
Visualization TLE readout
Latitude-41.86689°
Longitude-5.51291°
Altitude843.538 km
Speed7.428 km/s
Apparent Right ascension14h 37m 38s
Apparent Declination-62° 35' 40"
Sunlit
Object is in daylight
Visualization observer readout
Local Sidereal Time07:13:39
Azimuth143.231° SSE
Elevation-44.118°
Doppler factor1
Orbital elements
Apogee altitude834.919 km
Perigee altitude808.205 km
Semi-major axis7,199.699 km
Eccentricity0.0018552
Inclination83.066°
RAAN339.066°
Arg. of periapsis341.4691°
True anomaly18.64919°
Mean anomaly18.5813°
Eccentric anomaly18.61523°
Mean motion3.55281 °/min
BSTAR0.0032432
Orbital period101.33 mins
Loading maneuver chart data...
Loading historical data...
Loading historical data...
Loading historical data...
Loading historical data...
Loading historical data...
Loading historical data...
Loading historical data...

COSMOS 1275 DEB Visibility forecast

Observer location: undefined°, undefined

Span
Click to sort rows by Start time (UTC) header in descending order
Start Az.
Max El. time (UTC)
Max El. Az.
Max El.
End time (UTC)
End Az.
6 mins2024-12-04 10:33:23.494Z33.81° NE2024-12-04 10:36:23.494Z67.869° E15.501°2024-12-04 10:39:23.494Z102.848° ESE
9 mins2024-12-04 12:15:23.494Z342.286° N2024-12-04 12:19:23.494Z250.381° W41.514°2024-12-04 12:24:23.494Z187.311° SSW
6 mins2024-12-04 23:38:23.494Z123.157° SE2024-12-04 23:41:23.494Z79.55° E21.464°2024-12-04 23:44:23.494Z41.186° NE
8 mins2024-12-05 01:19:23.494Z221.963° SW2024-12-05 01:22:23.494Z269.681° W32.487°2024-12-05 01:27:23.494Z349.375° N
|